Retour au catalogue

STARLINK-6190

ActifCommunicationsVLEO
NORAD 56774·PAYLOAD·🇺🇸 United States

Lancé May 31, 2023 depuis Vandenberg Space Force Base

Loading…

Prochains Passages (prochaines 24 heures)

TLE

FraisSource: CelesTrak SupGP

Époque: Sep 15, 2026, 02:34 UTC

1 56774C 23078H   26258.10743056 -.00045702  00000+0 -38297-2 0  2586
2 56774  69.9997 246.9609 0003816 268.7412 231.0574 14.98355269    19

Suivez STARLINK-6190 en temps réel avec AllMySat

Download on the App Store